Location: Nairn
(57.5833°N, 3.8667°W)
Time: 23:01:26
(UTC+00:00)

Tiros 1 - Pass Details

Date: 03 December 2020
Orbit: 630 x 663 km, 48.4° (Epoch: 22 January)

Event Time Altitude Azimuth Distance (km) Brightness Sun altitude
Rises 13:31:15 0° 193° (SSW) 2,986 12.9 8.2°
Reaches altitude 10° 13:35:53 10° 152° (SSE) 2,079 10.5 8.0°
Maximum altitude 13:36:36 10° 144° (SE) 2,059 10.3 8.0°
Drops below altitude 10° 13:37:20 10° 135° (SE) 2,080 10.1 7.9°
Sets 13:41:57 0° 94° (E) 2,994 10.4 7.7°
